Tracking 29892 objects as of 21-Nov-2024
HD Live streaming from Space Station
objects crossing your sky now

FENGYUN 1C DEB

Track FENGYUN 1C DEB now!
10-day predictions


NORAD ID: 37042
Int'l Code: 1999-025EEA
Perigee: 654.4 km
Apogee: 764.5 km
Inclination: 98.6 °
Period: 98.8 minutes
Semi major axis: 7080 km
RCS: 0.0054 m2 (small)
Launch date: May 10, 1999
Source: People's Republic of China (PRC)
Launch site: Taiyaun Space Center, China (TSC)

Note: This is SATELLITE DEBRIS
Your satellite tracking list
Your tracking list is empty




NASA's NSSDC Master Catalog

Two Line Element Set (TLE):
1 37042U 99025EEA 24310.51817754  .00050778  00000-0  10732-1 0  9990
2 37042  98.5819  45.8718 0077792 206.7999 152.9170 14.57172038669032
Source of the keplerian elements: AFSPC